WetterOnline ( https://www.wetteronline.de )

Wetter aktuell Are (in 550m)

Aktuelles Wetter: Storlien-Visjovalen A (585m)

6-stündlich | Neueste Meldungen
Ortszeit Temperatur Wetter
Mo, 25.05. 8:00 5.9° C bedeckt
Mo, 25.05. 2:00 4.9° C bedeckt
So, 24.05. 20:00 7.6° C bedeckt
So, 24.05. 14:00 9.1° C bewölkt
So, 24.05. 8:00 6.0° C leicht bewölkt
So, 24.05. 2:00 4.5° C wolkig
Sa, 23.05. 20:00 6.8° C leicht bewölkt
Sa, 23.05. 14:00 7.8° C bewölkt
Ortszeit Temperatur Wetter
Mo, 25.05. 13:00 8.4° C bewölkt
Mo, 25.05. 12:00 8.2° C bedeckt
Mo, 25.05. 11:00 7.3° C bedeckt
Mo, 25.05. 10:00 6.4° C leichte Schauer
Mo, 25.05. 9:00 6.9° C bedeckt
Mo, 25.05. 8:00 5.9° C bedeckt
Ortszeit Relative Feuchte Sichtweite
Mo, 25.05. 8:00 82% 50 km
Mo, 25.05. 2:00 87% 50 km
So, 24.05. 20:00 69% 50 km
So, 24.05. 14:00 59% 30 km
So, 24.05. 8:00 70% 50 km
So, 24.05. 2:00 81% 50 km
Sa, 23.05. 20:00 68% 50 km
Sa, 23.05. 14:00 63% 50 km
Ortszeit Relative Feuchte Sichtweite
Mo, 25.05. 13:00 72% 50 km
Mo, 25.05. 12:00 71% 50 km
Mo, 25.05. 11:00 77% 17 km
Mo, 25.05. 10:00 81% 11 km
Mo, 25.05. 9:00 75% 50 km
Mo, 25.05. 8:00 82% 50 km
Ortszeit Niederschlagsmenge Niederschlagsart
Mo, 25.05. 8:00 0.1 l/m2 in 12 Std. Regenschauer
Mo, 25.05. 2:00 0.0 l/m2 in 1 Std. -
So, 24.05. 20:00 0.0 l/m2 in 12 Std. -
So, 24.05. 14:00 keine Meldung -
So, 24.05. 8:00 0.0 l/m2 in 12 Std. -
So, 24.05. 2:00 keine Meldung -
Sa, 23.05. 20:00 0.0 l/m2 in 12 Std. -
Sa, 23.05. 14:00 0.0 l/m2 in 1 Std. -
Ortszeit Niederschlagsmenge Niederschlagsart
Mo, 25.05. 13:00 0.0 l/m2 in 1 Std. Schauer
Mo, 25.05. 12:00 0.0 l/m2 in 1 Std. Schauer
Mo, 25.05. 11:00 0.1 l/m2 in 1 Std. Schauer
Mo, 25.05. 10:00 0.1 l/m2 in 1 Std. Schauer
Mo, 25.05. 9:00 0.0 l/m2 in 1 Std. -
Mo, 25.05. 8:00 0.0 l/m2 in 1 Std. Regenschauer
Ortszeit Stärke Spitze Richtung
km/h Bft. km/h Grad Sektor
Mo, 25.05. 8:00 2 1 - 310° NW
Mo, 25.05. 2:00 4 1 14 240° SW
So, 24.05. 20:00 6 1 - 210° SW
So, 24.05. 14:00 9 2 - 180° S
So, 24.05. 8:00 18 3 29 130° SO
So, 24.05. 2:00 24 4 - 140° SO
Sa, 23.05. 20:00 14 3 - 180° S
Sa, 23.05. 14:00 22 4 40 200° S
Ortszeit Stärke Spitze Richtung
km/h Bft. km/h Grad Sektor
Mo, 25.05. 13:00 9 2 17 290° W
Mo, 25.05. 12:00 6 1 17 260° W
Mo, 25.05. 11:00 7 2 22 230° SW
Mo, 25.05. 10:00 4 1 14 220° SW
Mo, 25.05. 9:00 7 2 18 230° SW
Mo, 25.05. 8:00 2 1 11 310° NW
Ortszeit Untergrenze Bedeckung Gattung
total tief tief mittel hoch
Mo, 25.05. 8:00 540 m 8/8 8/8 - - -
Mo, 25.05. 2:00 1290 m 8/8 7/8 - - -
So, 24.05. 20:00 1500 m 8/8 8/8 - - -
So, 24.05. 14:00 960 m 7/8 1/8 - - -
So, 24.05. 8:00 - 4/8 - - - -
So, 24.05. 2:00 1260 m 7/8 3/8 - - -
Sa, 23.05. 20:00 2700 m 2/8 1/8 - - -
Sa, 23.05. 14:00 2400 m 8/8 4/8 - - -
Ortszeit Bedeckungsgrad in Achtel und Wolkenuntergrenze
Mo, 25.05. 13:00 3(360m) 7(1290m)
Mo, 25.05. 12:00 8(480m)
Mo, 25.05. 11:00 8(630m)
Mo, 25.05. 10:00 8(330m)
Mo, 25.05. 9:00 6(540m) 8(1440m)
Mo, 25.05. 8:00 8(540m)
Ortszeit Luftdruck NN (hPa) Tendenz (hPa in 3 Std.)
Mo, 25.05. 8:00 1028 + 2,5
Mo, 25.05. 2:00 1022 + 3,2
So, 24.05. 20:00 1015 + 2,6
So, 24.05. 14:00 1009 + 1,7
So, 24.05. 8:00 1007 + 0,6
So, 24.05. 2:00 1007 - 0,3
Sa, 23.05. 20:00 1007 - 0,7
Sa, 23.05. 14:00 1008 + 0,7
Ortszeit Luftdruck NN (hPa) Tendenz (hPa in 3 Std.)
Mo, 25.05. 13:00 1030 + 1,6
Mo, 25.05. 12:00 1030 + 2,0
Mo, 25.05. 11:00 1030 + 2,1
Mo, 25.05. 10:00 1029 + 2,4
Mo, 25.05. 9:00 1028 + 2,5
Mo, 25.05. 8:00 1028 + 2,5
Ortszeit Schneehöhe (cm)
Mo, 25.05. 8:00 -
Mo, 25.05. 2:00 -
So, 24.05. 20:00 -
So, 24.05. 14:00 -
So, 24.05. 8:00 -
So, 24.05. 2:00 -
Sa, 23.05. 20:00 -
Sa, 23.05. 14:00 -
Ortszeit Schneehöhe (cm)
Mo, 25.05. 13:00 -
Mo, 25.05. 12:00 -
Mo, 25.05. 11:00 -
Mo, 25.05. 10:00 -
Mo, 25.05. 9:00 -
Mo, 25.05. 8:00 -
Link zu dieser Seite / Seite empfehlen

Das Wetter in ...